Time,TemperatureF,DewpointF,PressureIn,WindDirection,WindDirectionDegrees,WindSpeedMPH,WindSpeedGustMPH,Humidity,HourlyPrecipIn,Conditions,Clouds,dailyrainin,SoftwareType,DateUTC
2013-08-30 00:14:00,62.0,59.0,29.99,North,357,0.0,7.0,91,0.00,,,0.01,,2013-08-30 04:14:00,
2013-08-30 00:25:00,62.0,59.0,29.99,NNE,26,0.0,5.0,90,0.00,,,0.02,,2013-08-30 04:25:00,
2013-08-30 00:33:00,62.0,59.0,29.99,NNE,26,0.0,5.0,90,0.00,,,0.02,,2013-08-30 04:33:00,
2013-08-30 00:54:00,61.0,58.0,29.98,NNE,25,1.0,5.0,91,0.00,,,0.01,,2013-08-30 04:54:00,
2013-08-30 01:04:00,61.0,58.0,29.98,NNE,25,1.0,5.0,91,0.00,,,0.01,,2013-08-30 05:04:00,
2013-08-30 01:11:00,61.0,59.0,29.98,NNW,347,1.0,6.0,94,0.00,,,0.01,,2013-08-30 05:11:00,
2013-08-30 01:23:00,61.0,59.0,29.98,NE,53,0.0,2.0,92,0.00,,,0.01,,2013-08-30 05:23:00,
2013-08-30 01:42:00,61.0,59.0,29.98,NNW,347,1.0,6.0,94,0.00,,,0.01,,2013-08-30 05:42:00,
2013-08-30 01:52:00,61.0,59.0,29.98,NNW,347,1.0,6.0,94,0.00,,,0.01,,2013-08-30 05:52:00,
2013-08-30 02:02:00,61.0,59.0,29.98,NNW,347,1.0,6.0,94,0.00,,,0.01,,2013-08-30 06:02:00,
2013-08-30 02:22:00,62.0,60.0,29.97,NNE,25,1.0,9.0,93,0.00,,,0.00,,2013-08-30 06:22:00,
2013-08-30 02:53:00,63.0,60.0,29.96,NNE,13,0.0,7.0,90,0.00,,,0.00,,2013-08-30 06:53:00,
2013-08-30 03:02:00,63.0,60.0,29.96,NNE,13,0.0,7.0,90,0.00,,,0.00,,2013-08-30 07:02:00,
2013-08-30 03:12:00,63.0,60.0,29.96,NNE,13,0.0,7.0,90,0.00,,,0.00,,2013-08-30 07:12:00,
2013-08-30 03:22:00,63.0,59.0,29.96,NNE,18,1.0,9.0,88,0.00,,,0.00,,2013-08-30 07:22:00,
2013-08-30 03:32:00,63.0,59.0,29.96,NNE,18,1.0,9.0,88,0.00,,,0.00,,2013-08-30 07:32:00,
2013-08-30 03:53:00,63.0,60.0,29.95,NNE,21,0.0,8.0,89,0.00,,,0.00,,2013-08-30 07:53:00,
2013-08-30 04:11:00,63.0,60.0,29.95,North,9,2.0,9.0,89,0.00,,,0.00,,2013-08-30 08:11:00,
2013-08-30 04:22:00,63.0,60.0,29.95,NNE,24,3.0,8.0,90,0.00,,,0.00,,2013-08-30 08:22:00,
2013-08-30 04:43:00,63.0,60.0,29.94,NNE,18,3.0,12.0,89,0.00,,,0.00,,2013-08-30 08:43:00,
2013-08-30 04:52:00,63.0,60.0,29.94,NNW,338,1.0,8.0,89,0.00,,,0.00,,2013-08-30 08:52:00,
2013-08-30 05:02:00,63.0,60.0,29.94,NNW,338,1.0,8.0,89,0.00,,,0.00,,2013-08-30 09:02:00,
2013-08-30 05:12:00,63.0,60.0,29.94,NNW,338,1.0,8.0,89,0.00,,,0.00,,2013-08-30 09:12:00,
2013-08-30 05:22:00,63.0,60.0,29.94,NNE,26,1.0,5.0,91,0.00,,,0.00,,2013-08-30 09:22:00,
2013-08-30 05:44:00,63.0,60.0,29.94,North,6,0.0,1.0,91,0.00,,,0.00,,2013-08-30 09:44:00,
2013-08-30 05:53:00,63.0,60.0,29.94,North,6,0.0,1.0,91,0.00,,,0.00,,2013-08-30 09:53:00,
2013-08-30 06:13:00,62.0,60.0,29.94,North,358,2.0,9.0,94,0.00,,,0.00,,2013-08-30 10:13:00,
2013-08-30 06:23:00,62.0,60.0,29.95,NNW,343,2.0,8.0,94,0.00,,,0.00,,2013-08-30 10:23:00,
2013-08-30 06:32:00,62.0,60.0,29.95,NNW,343,2.0,8.0,94,0.00,,,0.00,,2013-08-30 10:32:00,
2013-08-30 06:43:00,62.0,60.0,29.95,NNW,343,2.0,8.0,94,0.00,,,0.00,,2013-08-30 10:43:00,
2013-08-30 06:53:00,62.0,60.0,29.96,NNW,343,0.0,7.0,94,0.00,,,0.00,,2013-08-30 10:53:00,
2013-08-30 07:03:00,62.0,60.0,29.96,NNW,343,0.0,7.0,94,0.00,,,0.00,,2013-08-30 11:03:00,
2013-08-30 07:12:00,62.0,60.0,29.96,NNW,343,0.0,7.0,94,0.00,,,0.00,,2013-08-30 11:12:00,
2013-08-30 07:22:00,62.0,60.0,29.96,North,4,1.0,6.0,94,0.00,,,0.00,,2013-08-30 11:22:00,
2013-08-30 07:33:00,62.0,60.0,29.96,North,4,1.0,6.0,94,0.00,,,0.00,,2013-08-30 11:33:00,
2013-08-30 07:52:00,63.0,61.0,29.96,West,279,0.0,7.0,94,0.00,,,0.00,,2013-08-30 11:52:00,
2013-08-30 08:12:00,63.0,61.0,29.96,NNW,335,1.0,9.0,94,0.00,,,0.00,,2013-08-30 12:12:00,
2013-08-30 08:21:00,63.0,61.0,29.96,NW,322,2.0,9.0,93,0.00,,,0.00,,2013-08-30 12:21:00,
2013-08-30 08:42:00,63.0,61.0,29.96,NW,305,4.0,8.0,93,0.00,,,0.00,,2013-08-30 12:42:00,
2013-08-30 08:52:00,64.0,61.0,29.96,NNW,334,3.0,8.0,91,0.00,,,0.00,,2013-08-30 12:52:00,
2013-08-30 09:11:00,64.0,61.0,29.96,NNW,334,3.0,8.0,91,0.00,,,0.00,,2013-08-30 13:11:00,
2013-08-30 09:22:00,64.0,61.0,29.96,North,4,1.0,8.0,89,0.00,,,0.00,,2013-08-30 13:22:00,
2013-08-30 09:52:00,65.0,61.0,29.95,NW,314,1.0,8.0,88,0.00,,,0.00,,2013-08-30 13:52:00,
2013-08-30 10:22:00,67.0,62.0,29.95,WNW,289,1.0,7.0,85,0.00,,,0.00,,2013-08-30 14:22:00,
2013-08-30 10:32:00,67.0,62.0,29.95,WNW,289,1.0,7.0,85,0.00,,,0.00,,2013-08-30 14:32:00,
2013-08-30 10:41:00,68.0,63.0,29.95,WSW,256,0.0,4.0,84,0.00,,,0.00,,2013-08-30 14:41:00,
2013-08-30 10:52:00,67.0,62.0,29.95,SW,231,1.0,6.0,85,0.00,,,0.00,,2013-08-30 14:52:00,
2013-08-30 11:11:00,68.0,63.0,29.95,WSW,256,0.0,4.0,84,0.00,,,0.00,,2013-08-30 15:11:00,
2013-08-30 11:22:00,68.0,63.0,29.95,WSW,256,0.0,4.0,84,0.00,,,0.00,,2013-08-30 15:22:00,
2013-08-30 11:33:00,68.0,63.0,29.95,WSW,256,0.0,4.0,84,0.00,,,0.00,,2013-08-30 15:33:00,
2013-08-30 11:55:00,68.0,63.0,29.93,West,261,0.0,6.0,85,0.00,,,0.00,,2013-08-30 15:55:00,
2013-08-30 12:13:00,69.0,64.0,29.93,WSW,247,4.0,7.0,85,0.00,,,0.00,,2013-08-30 16:13:00,
2013-08-30 12:25:00,70.0,66.0,29.92,WSW,247,2.0,7.0,86,0.00,,,0.00,,2013-08-30 16:25:00,
2013-08-30 12:33:00,70.0,66.0,29.92,WSW,247,2.0,7.0,86,0.00,,,0.00,,2013-08-30 16:33:00,
2013-08-30 12:43:00,70.0,66.0,29.92,WSW,247,2.0,7.0,86,0.00,,,0.00,,2013-08-30 16:43:00,
2013-08-30 12:53:00,70.0,65.0,29.91,WNW,282,1.0,9.0,85,0.00,,,0.00,,2013-08-30 16:53:00,
2013-08-30 13:03:00,70.0,65.0,29.91,WNW,282,1.0,9.0,85,0.00,,,0.00,,2013-08-30 17:03:00,
2013-08-30 13:13:00,70.0,65.0,29.91,WNW,282,1.0,9.0,85,0.00,,,0.00,,2013-08-30 17:13:00,
2013-08-30 13:23:00,70.0,65.0,29.91,WNW,286,4.0,11.0,84,0.00,,,0.00,,2013-08-30 17:23:00,
2013-08-30 13:53:00,71.0,66.0,29.90,WSW,256,3.0,10.0,84,0.00,,,0.00,,2013-08-30 17:53:00,
2013-08-30 14:02:00,71.0,66.0,29.90,WSW,256,3.0,10.0,84,0.00,,,0.00,,2013-08-30 18:02:00,
2013-08-30 14:22:00,72.0,67.0,29.88,WNW,284,7.0,11.0,84,0.00,,,0.00,,2013-08-30 18:22:00,
2013-08-30 14:52:00,74.0,68.0,29.87,NW,318,2.0,13.0,81,0.00,,,0.00,,2013-08-30 18:52:00,
2013-08-30 15:01:00,73.0,67.0,29.86,West,263,1.0,9.0,81,0.00,,,0.00,,2013-08-30 19:01:00,
2013-08-30 15:12:00,74.0,67.0,29.87,WSW,252,9.0,12.0,80,0.00,,,0.00,,2013-08-30 19:12:00,
2013-08-30 15:22:00,73.0,67.0,29.86,West,263,1.0,9.0,81,0.00,,,0.00,,2013-08-30 19:22:00,
2013-08-30 15:32:00,73.0,67.0,29.86,West,263,1.0,9.0,81,0.00,,,0.00,,2013-08-30 19:32:00,
2013-08-30 15:53:00,73.0,67.0,29.86,West,263,1.0,9.0,81,0.00,,,0.00,,2013-08-30 19:53:00,
2013-08-30 16:22:00,74.0,68.0,29.85,WSW,239,6.0,11.0,83,0.00,,,0.00,,2013-08-30 20:22:00,
2013-08-30 16:32:00,74.0,68.0,29.85,WSW,239,6.0,11.0,83,0.00,,,0.00,,2013-08-30 20:32:00,
2013-08-30 16:52:00,73.0,68.0,29.85,SW,217,2.0,8.0,84,0.00,,,0.00,,2013-08-30 20:52:00,
2013-08-30 17:22:00,74.0,68.0,29.85,WSW,242,5.0,10.0,83,0.00,,,0.00,,2013-08-30 21:22:00,
2013-08-30 17:55:00,74.0,69.0,29.85,SW,225,4.0,9.0,85,0.00,,,0.00,,2013-08-30 21:55:00,
2013-08-30 18:04:00,74.0,69.0,29.85,SW,225,4.0,9.0,85,0.00,,,0.00,,2013-08-30 22:04:00,
2013-08-30 18:13:00,74.0,69.0,29.85,SW,225,4.0,9.0,85,0.00,,,0.00,,2013-08-30 22:13:00,
2013-08-30 18:24:00,72.0,68.0,29.85,SW,235,3.0,8.0,88,0.00,,,0.00,,2013-08-30 22:24:00,
2013-08-30 18:54:00,72.0,69.0,29.85,SW,217,2.0,8.0,89,0.00,,,0.00,,2013-08-30 22:54:00,
2013-08-30 19:12:00,71.0,68.0,29.85,SW,227,3.0,8.0,90,0.00,,,0.00,,2013-08-30 23:12:00,
2013-08-30 19:22:00,71.0,68.0,29.85,SSW,211,4.0,8.0,90,0.00,,,0.00,,2013-08-30 23:22:00,
2013-08-30 19:53:00,69.0,67.0,29.85,SW,222,4.0,8.0,93,0.00,,,0.00,,2013-08-30 23:53:00,
2013-08-30 20:11:00,69.0,67.0,29.85,SW,236,3.0,10.0,94,0.00,,,0.00,,2013-08-31 00:11:00,
2013-08-30 20:22:00,69.0,67.0,29.85,WSW,251,3.0,9.0,94,0.00,,,0.00,,2013-08-31 00:22:00,
2013-08-30 20:32:00,69.0,67.0,29.85,WSW,251,3.0,9.0,94,0.00,,,0.00,,2013-08-31 00:32:00,
2013-08-30 20:42:00,69.0,67.0,29.85,WSW,251,3.0,9.0,94,0.00,,,0.00,,2013-08-31 00:42:00,
2013-08-30 20:52:00,68.0,67.0,29.85,WSW,245,1.0,8.0,95,0.00,,,0.00,,2013-08-31 00:52:00,
2013-08-30 21:11:00,68.0,67.0,29.85,SW,222,5.0,9.0,96,0.00,,,0.00,,2013-08-31 01:11:00,
2013-08-30 21:22:00,68.0,67.0,29.85,SW,222,5.0,9.0,96,0.00,,,0.00,,2013-08-31 01:22:00,
2013-08-30 21:52:00,68.0,67.0,29.85,SW,230,3.0,9.0,97,0.00,,,0.00,,2013-08-31 01:52:00,
2013-08-30 22:12:00,68.0,67.0,29.85,SSW,202,3.0,7.0,97,0.00,,,0.00,,2013-08-31 02:12:00,
2013-08-30 22:22:00,68.0,67.0,29.85,SW,230,3.0,9.0,97,0.00,,,0.00,,2013-08-31 02:22:00,
2013-08-30 22:32:00,68.0,67.0,29.85,SW,230,3.0,9.0,97,0.00,,,0.00,,2013-08-31 02:32:00,
2013-08-30 22:42:00,68.0,67.0,29.85,SW,230,3.0,9.0,97,0.00,,,0.00,,2013-08-31 02:42:00,
2013-08-30 22:52:00,68.0,67.0,29.85,SW,217,6.0,9.0,97,0.00,,,0.00,,2013-08-31 02:52:00,
2013-08-30 23:12:00,68.0,67.0,29.85,SW,216,6.0,9.0,97,0.00,,,0.00,,2013-08-31 03:12:00,
2013-08-30 23:22:00,68.0,67.0,29.85,SW,216,6.0,9.0,97,0.00,,,0.00,,2013-08-31 03:22:00,
2013-08-30 23:54:00,68.0,67.0,29.85,SW,225,4.0,9.0,98,0.00,,,0.00,,2013-08-31 03:54:00,